Retour au catalogue

STARLINK-5067

ActifCommunicationsVLEO
NORAD 55653·PAYLOAD·🇺🇸 United States

Lancé Feb 17, 2023 depuis Vandenberg Space Force Base

Loading…

Prochains Passages (prochaines 24 heures)

TLE

FraisSource: CelesTrak SupGP

Époque: Sep 15, 2026, 01:48 UTC

1 55653C 23021AB  26258.07548611 -.00053864  00000+0 -45146-2 0  2584
2 55653  70.0007  66.7786 0002605 271.3159  90.0493 14.98353545    14

Suivez STARLINK-5067 en temps réel avec AllMySat

Download on the App Store